Location: Alando
(42.3054°N, 9.2895°E)
Time: 03:14:10
(UTC+00:00)

GRACE-FO 2 - Pass Details

Date: 09 April 2020
Orbit: 483 x 504 km, 89.0° (Epoch: 29 May)

Event Time Altitude Azimuth Distance (km) Brightness Sun altitude
Exits shadow 19:51:51 68° 101° (E) 544 4.5 -20.3°
Maximum altitude 19:51:57 69° 87° (E) 542 4.5 -20.3°
Drops below altitude 10° 19:55:39 10° 4° (N) 1,712 7.7 -20.9°
Sets 19:57:46 0° 2° (N) 2,597 8.7 -21.2°
